sat.trackr.live / text

‹ back to catalog

STARLINK-34144

NORAD 63958 · 2025-099G

PAYLOAD ACTIVE UNKNOWN

§ Identity

Operator
Country
US
Launch date
2025-05-13
Launch site
AFETR
Launch vehicle
Mass (kg)
RCS (m²)

Purposes: comms

External: N2YO · Heavens-Above · Gunter

§ Orbital elements

Epoch: 2026-09-20T09:42:41.602752Z

Period
94.27 min
Inclination
43.0023°
Eccentricity
0.0000990
Mean motion
15.27591161 rev/d
Perigee alt
482.3 km
Apogee alt
483.7 km
Semi-major
6,861.2 km
B*
4.5398e-4
RAAN
156.7248°
Arg perigee
279.0460°
Mean anomaly
81.0279°
Rev number
7,711

§ Raw data

STARLINK-341441 63958U 25099G   26263.40464818  .00012255  00000+0  45398-3 0  99962 63958  43.0023 156.7248 0000990 279.0460  81.0279 15.27591161 77115

JSON: /api/v1/satellites/63958 · /tle

For live sub-satellite position, see the globe view (requires WebGL).

§ Visibility from observer

Set your observer location to see the next 7 days of passes ≥ 10°. The values pass through the URL so the page stays shareable.

No JS? Fill the form by hand. The geolocation button needs JavaScript.